Location: Bruch
(44.2051°N, 0.4120°E)
Time: 09:05:38
(UTC+00:00)

Cosmos 1709 Rocket - Pass Details

Date: 29 November 2020
Orbit: 947 x 1003 km, 82.9° (Epoch: 25 January)

Event Time Altitude Azimuth Distance (km) Brightness Sun altitude
Rises 04:57:06 0° 201° (SSW) 3,704 6.9 -23.5°
Reaches altitude 10° 04:59:41 10° 206° (SSW) 2,763 6.2 -23.1°
Maximum altitude 05:05:53 53° 283° (WNW) 1,220 4.1 -22.0°
Drops below altitude 10° 05:12:08 10° 359° (N) 2,784 6.3 -20.9°
Sets 05:14:45 0° 5° (N) 3,734 7.0 -20.4°
